Home > Weather > Caracas > Past weeks

Flag for Venezuela Past Weather in Caracas, Venezuela — Yesterday and Last 2 Weeks

Now
88 °F

Scattered clouds.


Feels Like: 93 °F
Forecast: 68 / 77 °F
Wind: 3 mph from Northeast

Location: Caracas / Maiquetia Aerop. Intl. Simon Bolivar

Current Time: Jun 29, 2016 at 4:12:42 PM

Latest Report: Jun 29, 2016 at 3:00 PM


Visibility: N/A

Pressure: 29.86 "Hg (27.06 "Hg at 875m altitude)

Humidity: 55%

Dew Point: 70 °F

Location of CaracasLocation

Past Weather in Caracas — Graph

°F

Caracas Temperature Yesterday

Maximum temperature yesterday: 90 °F (at 2:00 PM)
Minimum temperature yesterday: 79 °F (at 4:00 AM)
Average temperature yesterday: 83 °F

High & Low Weather Summary for the Past Weeks

 TemperatureHumidityPressure
High91 °F (Jun 15, 2:00 PM)84% (Jun 19, 7:00 PM)29.98 "Hg (Jun 19, 7:00 PM)
Low77 °F (Jun 29, 5:00 AM)48% (Jun 16, 9:00 AM)29.80 "Hg (Jun 19, 4:00 PM)
Average83 °F61%29.90 "Hg
* Reported Jun 14 2:00 PM — Jun 29 2:00 PM, Caracas, Weather by CustomWeather, © 2016

Note: Actual official high and low records may vary slightly from our data, if they occured in-between our weather recording intervals... More about our weather records

Advertising

Caracas Weather History for the Previous 24 Hours

Scroll right to see more
 ConditionsComfort  
Time TempWeatherWind HumidityBarometerVisibility
2:00 PM
Wed, Jun 29
88 °FScattered clouds.3 mph55%29.86 "HgN/A
1:00 PM88 °FPartly sunny.5 mph55%29.86 "HgN/A
12:00 PM86 °FScattered clouds.3 mph66%29.89 "HgN/A
11:00 AM86 °FScattered clouds.3 mph66%29.89 "HgN/A
10:00 AM86 °FScattered clouds.3 mph66%29.89 "HgN/A
9:00 AM84 °FScattered clouds.1 mph62%29.89 "HgN/A
8:00 AM81 °FScattered clouds.No wind66%29.86 "HgN/A
7:00 AM77 °FScattered clouds.No wind69%29.89 "HgN/A
6:00 AM77 °FScattered clouds.No wind69%29.86 "HgN/A
5:00 AM77 °FPassing clouds.No wind69%29.86 "HgN/A
4:00 AM79 °FPassing clouds.No wind65%29.86 "HgN/A
3:00 AM79 °FPassing clouds.No wind65%29.86 "HgN/A
2:00 AM79 °FPassing clouds.No wind70%29.89 "HgN/A
1:00 AM81 °FPassing clouds.No wind66%29.89 "HgN/A
12:00 AM81 °FPassing clouds.No wind66%29.89 "HgN/A
11:00 PM
Tue, Jun 28
81 °FPassing clouds.No wind66%29.92 "HgN/A
10:00 PM81 °FPassing clouds.1 mph66%29.89 "HgN/A
9:00 PM81 °FPassing clouds.2 mph66%29.89 "HgN/A
8:00 PM81 °FPassing clouds.1 mph66%29.86 "HgN/A
6:00 PM86 °FScattered clouds.5 mph66%29.86 "HgN/A
5:00 PM86 °FScattered clouds.5 mph66%29.86 "HgN/A
4:00 PM88 °FScattered clouds.5 mph55%N/AN/A
Weather by CustomWeather, © 2016

See weather overviewHow to use our weather pages